Showing default

FLOCK 4BE 17, 60492

Orbit data source: Space-Track

FLOCK 4BE 17, 60492 is a payload satellite owned by Planet (US) in SSO that was launched on Fri, 16 Aug 2024 UTC via an FALCON 9 launch vehicle from the Air Force Western Test Range (AFWTR). Payload-class satellites include a variety of spacecraft equipped with specific instruments for various scientific and technological missions. These include communications satellites like Starlink; space stations such as the ISS; scientific satellites like the Hubble; Earth observation satellites from companies like Planet Labs, Umbra, and HawkEye 360; GPS; miniature CubeSats for education and research; and military/defense satellites.

Loading next visibility...
Identifier
60492, 2024-149AA
Orbit
SSO
Country
Flag of USUS
Related business
Manufacturer
Planet
Mission
Operational Commercial Imaging
Bus & Motor
CUBESAT 3U, Unknown motor
Mass
5.7 kg wet, 5.7 kg dry
Launch date (UTC)
2024-08-16 (2 years ago)
Launch vehicle
FALCON 9
Launch site
Air Force Western Test Range (AFWTR)
Object type
Payload
Rocket body
Debris
Shape & HBR
Box + 2 Pan, 1.0 m
Radar Cross Section
0.072 m², Medium (>0.1 m² and < 1m²)

Expand to show TLE details & history
Last TLE update: 17 hours ago

TLE from 17 hours ago
0 FLOCK 4BE 17
1 60492U 24149AA  26072.21093422  .00017012  00000-0  47497-3 0  9996
2 60492  97.3814 155.0213 0002612 218.7646 141.3411 15.36787878 87502
Epoch: 2026-03-13T05:03Z
TLE epoch observation values (Epoch: 2026-03-13T05:03:44.716Z)
Latitude
-0.00005°
Longitude
-91.76474°
Altitude
460.123 km
Speed
7.636 km/s
True Right ascension
10h 20m 05s
True Declination
0° 00' 00"
Sunlit
Object was in full shadow at epoch
Visualization orbit readout
Latitude
Unknown
Longitude
Unknown
Altitude
Unknown
Speed
Unknown
Apparent Right ascension
Unknown
Apparent Declination
Unknown
Sunlit
N/A
Visualization observer readout
Local Sidereal Time
02:01:48
Azimuth
Unknown
Elevation
Unknown
Doppler factor
Unknown
Orbital elements
Apogee altitude
454.342 km
Perigee altitude
450.773 km
Semi-major axis
6,830.695 km
Eccentricity
0.00026
Inclination
97.3814°
RAAN
155.0213°
Arg. of periapsis
218.7646°
True anomaly
141.35979°
Mean anomaly
141.3411°
Eccentric anomaly
141.35045°
Mean motion
3.84455 °/min
Orbital period
93.64 mins
BSTAR
0.00047497
Loading maneuver chart data...
Computing Atmospheric mass density...
Loading historical data...
Loading historical data...
Loading historical data...
Loading historical data...
Loading historical data...
Loading historical data...
Loading historical data...

Documentation

Showing up to 5 results
|